Startpagina
METAR-TAF:

METAR-TAF

Vliegvelden :

Productieplatform

L9-ff-1, Nederland

breedte: 53-36-52N, lengte: 4-57-37E, hoogte: 30 m

Actueel weer

Dit bericht is 47 minuten geleden gemaakt, om 23:25 UTC
Wind 10 kt uit het westnoordwesten
Temperatuur 14°C
Vochtigheid 72%
Druk 1027 hPa
Zicht 10 km of meer
Weinig wolken op 1800 ft

METAR: EHMG 122325Z AUTO 30010KT 9999 FEW018 14/09 Q1027

Tijdstip: 02:12 (00:12 UTC)


TAF: ontbreekt

Waarnemingen en weersverwachtingen van meer dan 4000 vliegvelden (METAR en TAF).

De beschikbare stations zijn de gele en rode punten op de kaart.

Ga met uw muis naar het station om de naam te zien.

Klik dan om waarnemingen en weersverwachtingen te zien.

kaart wijzigen: klik op de groene knoppen met een zwart kruis om in te zoomen, op de groene knop met een streepje om uit te zoomen of op de groene pijlen voor aangrenzende kaarten.


METAR-TAF: